Time,TemperatureF,DewpointF,PressureIn,WindDirection,WindDirectionDegrees,WindSpeedMPH,WindSpeedGustMPH,Humidity,HourlyPrecipIn,Conditions,Clouds,dailyrainin,SoftwareType,DateUTC
2013-01-30 00:03:00,62.0,62.0,30.05,SW,221,3.0,5.0,100,0.00,,,0.02,,2013-01-30 05:03:00,
2013-01-30 00:12:00,62.0,62.0,30.04,South,186,4.0,7.0,100,0.00,,,0.01,,2013-01-30 05:12:00,
2013-01-30 00:22:00,62.0,62.0,30.04,South,186,4.0,7.0,100,0.00,,,0.01,,2013-01-30 05:22:00,
2013-01-30 00:32:00,62.0,62.0,30.04,ESE,120,2.0,7.0,100,0.00,,,0.01,,2013-01-30 05:32:00,
2013-01-30 00:43:00,62.0,62.0,30.04,ESE,120,2.0,7.0,100,0.00,,,0.01,,2013-01-30 05:43:00,
2013-01-30 00:52:00,63.0,63.0,30.04,SSE,148,4.0,7.0,100,0.00,,,0.01,,2013-01-30 05:52:00,
2013-01-30 01:02:00,63.0,63.0,30.03,SE,131,2.0,11.0,100,0.00,,,0.01,,2013-01-30 06:02:00,
2013-01-30 01:11:00,63.0,63.0,30.03,SE,131,2.0,11.0,100,0.00,,,0.01,,2013-01-30 06:11:00,
2013-01-30 01:21:00,63.0,63.0,30.03,South,170,2.0,9.0,100,0.00,,,0.01,,2013-01-30 06:21:00,
2013-01-30 01:32:00,63.0,63.0,30.02,SSE,158,4.0,8.0,100,0.00,,,0.01,,2013-01-30 06:32:00,
2013-01-30 01:42:00,63.0,63.0,30.02,SSE,158,4.0,8.0,100,0.00,,,0.01,,2013-01-30 06:42:00,
2013-01-30 01:52:00,63.0,63.0,30.02,SSW,210,2.0,8.0,100,0.00,,,0.01,,2013-01-30 06:52:00,
2013-01-30 02:02:00,63.0,63.0,30.01,ENE,75,6.0,11.0,100,0.00,,,0.01,,2013-01-30 07:02:00,
2013-01-30 02:11:00,63.0,63.0,30.01,ENE,75,6.0,11.0,100,0.00,,,0.01,,2013-01-30 07:11:00,
2013-01-30 02:21:00,63.0,63.0,30.01,West,267,4.0,12.0,100,0.00,,,0.01,,2013-01-30 07:21:00,
2013-01-30 02:32:00,63.0,63.0,30.00,South,177,4.0,8.0,100,0.00,,,0.01,,2013-01-30 07:32:00,
2013-01-30 02:42:00,63.0,63.0,30.00,South,177,4.0,8.0,100,0.00,,,0.01,,2013-01-30 07:42:00,
2013-01-30 02:52:00,63.0,63.0,29.99,SSE,148,6.0,11.0,100,0.00,,,0.01,,2013-01-30 07:52:00,
2013-01-30 03:01:00,63.0,63.0,29.99,SSW,201,4.0,10.0,100,0.00,,,0.01,,2013-01-30 08:01:00,
2013-01-30 03:11:00,63.0,63.0,29.99,SSW,201,4.0,10.0,100,0.00,,,0.01,,2013-01-30 08:11:00,
2013-01-30 03:21:00,63.0,63.0,29.99,South,180,3.0,10.0,100,0.00,,,0.01,,2013-01-30 08:21:00,
2013-01-30 03:32:00,63.0,63.0,29.98,South,179,6.0,10.0,100,0.00,,,0.01,,2013-01-30 08:32:00,
2013-01-30 03:42:00,63.0,63.0,29.98,South,179,6.0,10.0,100,0.00,,,0.01,,2013-01-30 08:42:00,
2013-01-30 03:52:00,63.0,63.0,29.97,West,267,5.0,10.0,100,0.00,,,0.01,,2013-01-30 08:52:00,
2013-01-30 04:01:00,63.0,63.0,29.97,SSE,148,3.0,9.0,100,0.00,,,0.01,,2013-01-30 09:01:00,
2013-01-30 04:11:00,63.0,63.0,29.97,SSE,148,3.0,9.0,100,0.00,,,0.01,,2013-01-30 09:11:00,
2013-01-30 04:21:00,64.0,64.0,29.97,SSE,156,5.0,9.0,100,0.00,,,0.01,,2013-01-30 09:21:00,
2013-01-30 04:32:00,64.0,64.0,29.96,SSE,148,5.0,11.0,100,0.00,,,0.01,,2013-01-30 09:32:00,
2013-01-30 04:42:00,64.0,64.0,29.96,SSE,148,5.0,11.0,100,0.00,,,0.01,,2013-01-30 09:42:00,
2013-01-30 04:52:00,64.0,64.0,29.96,ESE,113,5.0,8.0,100,0.00,,,0.01,,2013-01-30 09:52:00,
2013-01-30 05:01:00,64.0,64.0,29.95,ESE,111,5.0,9.0,100,0.00,,,0.01,,2013-01-30 10:01:00,
2013-01-30 05:11:00,64.0,64.0,29.95,ESE,111,5.0,9.0,100,0.00,,,0.01,,2013-01-30 10:11:00,
2013-01-30 05:21:00,64.0,64.0,29.94,SSW,201,5.0,10.0,100,0.00,,,0.01,,2013-01-30 10:21:00,
2013-01-30 05:32:00,64.0,64.0,29.94,SSE,165,3.0,10.0,100,0.00,,,0.01,,2013-01-30 10:32:00,
2013-01-30 05:42:00,64.0,64.0,29.94,SSE,165,3.0,10.0,100,0.00,,,0.01,,2013-01-30 10:42:00,
2013-01-30 05:52:00,65.0,65.0,29.93,ESE,110,4.0,13.0,100,0.00,,,0.01,,2013-01-30 10:52:00,
2013-01-30 06:02:00,65.0,65.0,29.92,SSW,197,4.0,10.0,100,0.00,,,0.01,,2013-01-30 11:02:00,
2013-01-30 06:11:00,65.0,65.0,29.92,SSW,197,4.0,10.0,100,0.00,,,0.01,,2013-01-30 11:11:00,
2013-01-30 06:22:00,65.0,65.0,29.92,SW,225,4.0,10.0,100,0.00,,,0.01,,2013-01-30 11:22:00,
2013-01-30 06:33:00,65.0,65.0,29.93,South,186,6.0,13.0,100,0.00,,,0.01,,2013-01-30 11:33:00,
2013-01-30 06:42:00,65.0,65.0,29.93,South,186,6.0,13.0,100,0.00,,,0.01,,2013-01-30 11:42:00,
2013-01-30 06:52:00,65.0,65.0,29.93,South,190,5.0,12.0,100,0.00,,,0.01,,2013-01-30 11:52:00,
2013-01-30 07:02:00,65.0,65.0,29.91,SSE,148,5.0,12.0,100,0.00,,,0.01,,2013-01-30 12:02:00,
2013-01-30 07:12:00,65.0,65.0,29.91,SSE,148,5.0,12.0,100,0.00,,,0.01,,2013-01-30 12:12:00,
2013-01-30 07:22:00,65.0,65.0,29.91,SE,125,4.0,11.0,100,0.00,,,0.01,,2013-01-30 12:22:00,
2013-01-30 07:33:00,65.0,65.0,29.92,West,264,5.0,11.0,100,0.00,,,0.01,,2013-01-30 12:33:00,
2013-01-30 07:43:00,65.0,65.0,29.92,West,264,5.0,11.0,100,0.00,,,0.01,,2013-01-30 12:43:00,
2013-01-30 08:03:00,65.0,65.0,29.91,SSW,210,4.0,13.0,100,0.00,,,0.01,,2013-01-30 13:03:00,
2013-01-30 08:12:00,65.0,65.0,29.91,SSW,210,4.0,13.0,100,0.00,,,0.01,,2013-01-30 13:12:00,
2013-01-30 08:23:00,66.0,66.0,29.90,ESE,110,5.0,10.0,100,0.00,,,0.01,,2013-01-30 13:23:00,
2013-01-30 08:33:00,66.0,66.0,29.90,SW,229,4.0,10.0,100,0.00,,,0.01,,2013-01-30 13:33:00,
2013-01-30 08:43:00,66.0,66.0,29.90,SW,229,4.0,10.0,100,0.00,,,0.01,,2013-01-30 13:43:00,
2013-01-30 08:53:00,66.0,66.0,29.90,SSW,203,7.0,12.0,100,0.00,,,0.01,,2013-01-30 13:53:00,
2013-01-30 09:03:00,65.0,65.0,29.89,SSW,205,4.0,13.0,100,0.00,,,0.01,,2013-01-30 14:03:00,
2013-01-30 09:12:00,65.0,65.0,29.89,SSW,205,4.0,13.0,100,0.00,,,0.01,,2013-01-30 14:12:00,
2013-01-30 09:23:00,65.0,65.0,29.89,SE,134,5.0,10.0,100,0.00,,,0.01,,2013-01-30 14:23:00,
2013-01-30 09:33:00,65.0,65.0,29.88,SW,224,4.0,11.0,100,0.00,,,0.01,,2013-01-30 14:33:00,
2013-01-30 09:42:00,65.0,65.0,29.88,SW,224,4.0,11.0,100,0.00,,,0.01,,2013-01-30 14:42:00,
2013-01-30 09:53:00,65.0,65.0,29.88,South,177,3.0,10.0,100,0.00,,,0.01,,2013-01-30 14:53:00,
2013-01-30 10:03:00,65.0,65.0,29.88,ESE,121,4.0,12.0,100,0.00,,,0.01,,2013-01-30 15:03:00,
2013-01-30 10:12:00,65.0,65.0,29.88,ESE,121,4.0,12.0,100,0.00,,,0.01,,2013-01-30 15:12:00,
2013-01-30 10:23:00,65.0,65.0,29.87,South,176,5.0,14.0,100,0.00,,,0.01,,2013-01-30 15:23:00,
2013-01-30 10:33:00,65.0,65.0,29.87,SSE,158,5.0,8.0,100,0.00,,,0.01,,2013-01-30 15:33:00,
2013-01-30 10:43:00,65.0,65.0,29.87,SSE,158,5.0,8.0,100,0.00,,,0.01,,2013-01-30 15:43:00,
2013-01-30 10:53:00,65.0,65.0,29.87,SSW,193,3.0,10.0,100,0.00,,,0.01,,2013-01-30 15:53:00,
2013-01-30 11:03:00,65.0,65.0,29.86,WNW,285,5.0,9.0,100,0.00,,,0.01,,2013-01-30 16:03:00,
2013-01-30 11:12:00,65.0,65.0,29.86,WNW,285,5.0,9.0,100,0.00,,,0.01,,2013-01-30 16:12:00,
2013-01-30 11:23:00,65.0,65.0,29.84,South,174,3.0,9.0,100,0.00,,,0.01,,2013-01-30 16:23:00,
2013-01-30 11:32:00,65.0,65.0,29.82,South,180,5.0,10.0,100,0.00,,,0.01,,2013-01-30 16:32:00,
2013-01-30 11:42:00,65.0,65.0,29.82,South,180,5.0,10.0,100,0.00,,,0.01,,2013-01-30 16:42:00,
2013-01-30 11:52:00,65.0,65.0,29.82,South,180,5.0,10.0,100,0.00,,,0.01,,2013-01-30 16:52:00,
2013-01-30 12:02:00,66.0,66.0,29.80,ESE,122,6.0,10.0,100,0.00,,,0.01,,2013-01-30 17:02:00,
2013-01-30 12:12:00,66.0,66.0,29.80,ESE,122,6.0,10.0,100,0.00,,,0.01,,2013-01-30 17:12:00,
2013-01-30 12:23:00,67.0,67.0,29.79,ESE,118,4.0,9.0,100,0.00,,,0.01,,2013-01-30 17:23:00,
2013-01-30 12:33:00,67.0,67.0,29.78,South,190,4.0,12.0,100,0.00,,,0.01,,2013-01-30 17:33:00,
2013-01-30 12:43:00,67.0,67.0,29.78,South,190,4.0,12.0,100,0.00,,,0.01,,2013-01-30 17:43:00,
2013-01-30 12:53:00,68.0,67.0,29.77,SW,214,7.0,13.0,98,0.00,,,0.01,,2013-01-30 17:53:00,
2013-01-30 13:03:00,68.0,67.0,29.75,SE,131,5.0,10.0,97,0.00,,,0.01,,2013-01-30 18:03:00,
2013-01-30 13:13:00,68.0,67.0,29.75,SE,131,5.0,10.0,97,0.00,,,0.01,,2013-01-30 18:13:00,
2013-01-30 13:23:00,70.0,68.0,29.73,SSW,204,6.0,11.0,93,0.00,,,0.01,,2013-01-30 18:23:00,
2013-01-30 13:33:00,71.0,67.0,29.72,South,170,5.0,11.0,86,0.00,,,0.01,,2013-01-30 18:33:00,
2013-01-30 13:42:00,71.0,67.0,29.72,South,170,5.0,11.0,86,0.00,,,0.01,,2013-01-30 18:42:00,
2013-01-30 13:53:00,72.0,65.0,29.70,South,176,6.0,14.0,80,0.00,,,0.01,,2013-01-30 18:53:00,
2013-01-30 14:03:00,73.0,64.0,29.68,SW,226,7.0,15.0,74,0.00,,,0.01,,2013-01-30 19:03:00,
2013-01-30 14:12:00,73.0,64.0,29.68,SW,226,7.0,15.0,74,0.00,,,0.01,,2013-01-30 19:12:00,
2013-01-30 14:22:00,73.0,64.0,29.67,SSW,194,5.0,15.0,73,0.00,,,0.01,,2013-01-30 19:22:00,
2013-01-30 14:32:00,73.0,64.0,29.66,SSE,159,1.0,13.0,73,0.00,,,0.01,,2013-01-30 19:32:00,
2013-01-30 14:43:00,73.0,64.0,29.66,SSE,159,1.0,13.0,73,0.00,,,0.01,,2013-01-30 19:43:00,
2013-01-30 14:53:00,73.0,63.0,29.66,SSE,149,4.0,15.0,70,0.00,,,0.01,,2013-01-30 19:53:00,
2013-01-30 15:03:00,73.0,63.0,29.65,SSE,166,6.0,16.0,70,0.00,,,0.01,,2013-01-30 20:03:00,
2013-01-30 15:12:00,73.0,63.0,29.65,SSE,166,6.0,16.0,70,0.00,,,0.01,,2013-01-30 20:12:00,
2013-01-30 15:22:00,73.0,62.0,29.65,SSW,210,7.0,17.0,69,0.00,,,0.01,,2013-01-30 20:22:00,
2013-01-30 15:33:00,73.0,62.0,29.63,East,97,4.0,10.0,69,0.00,,,0.01,,2013-01-30 20:33:00,
2013-01-30 15:42:00,73.0,62.0,29.63,East,97,4.0,10.0,69,0.00,,,0.01,,2013-01-30 20:42:00,
2013-01-30 15:53:00,74.0,62.0,29.61,SSW,210,4.0,11.0,67,0.00,,,0.01,,2013-01-30 20:53:00,
2013-01-30 16:03:00,74.0,62.0,29.61,South,170,6.0,14.0,66,0.00,,,0.01,,2013-01-30 21:03:00,
2013-01-30 16:12:00,74.0,62.0,29.61,South,170,6.0,14.0,66,0.00,,,0.01,,2013-01-30 21:12:00,
2013-01-30 16:23:00,74.0,61.0,29.60,SE,142,7.0,13.0,65,0.00,,,0.01,,2013-01-30 21:23:00,
2013-01-30 16:32:00,73.0,61.0,29.59,ESE,103,4.0,11.0,67,0.00,,,0.01,,2013-01-30 21:32:00,
2013-01-30 16:42:00,73.0,61.0,29.59,ESE,103,4.0,11.0,67,0.00,,,0.01,,2013-01-30 21:42:00,
2013-01-30 16:53:00,73.0,61.0,29.59,South,184,5.0,16.0,66,0.00,,,0.01,,2013-01-30 21:53:00,
2013-01-30 17:03:00,73.0,61.0,29.58,SE,138,9.0,28.0,67,0.00,,,0.01,,2013-01-30 22:03:00,
2013-01-30 17:12:00,73.0,61.0,29.58,SE,138,9.0,28.0,67,0.00,,,0.01,,2013-01-30 22:12:00,
2013-01-30 17:22:00,72.0,61.0,29.56,ESE,114,5.0,17.0,68,0.00,,,0.01,,2013-01-30 22:22:00,
2013-01-30 17:32:00,72.0,61.0,29.56,SW,218,5.0,15.0,69,0.00,,,0.01,,2013-01-30 22:32:00,
2013-01-30 17:42:00,72.0,61.0,29.56,SW,218,5.0,15.0,69,0.00,,,0.01,,2013-01-30 22:42:00,
2013-01-30 17:53:00,71.0,61.0,29.54,SSE,156,5.0,17.0,71,0.00,,,0.01,,2013-01-30 22:53:00,
2013-01-30 18:02:00,71.0,61.0,29.53,East,90,5.0,18.0,71,0.00,,,0.01,,2013-01-30 23:02:00,
2013-01-30 18:12:00,71.0,61.0,29.53,East,90,5.0,18.0,71,0.00,,,0.01,,2013-01-30 23:12:00,
2013-01-30 18:22:00,70.0,61.0,29.52,East,90,6.0,20.0,72,0.00,,,0.01,,2013-01-30 23:22:00,
2013-01-30 18:32:00,70.0,61.0,29.52,SE,131,7.0,15.0,74,0.00,,,0.01,,2013-01-30 23:32:00,
2013-01-30 18:42:00,70.0,61.0,29.52,SE,131,7.0,15.0,74,0.00,,,0.01,,2013-01-30 23:42:00,
2013-01-30 18:52:00,69.0,61.0,29.50,South,181,8.0,13.0,76,0.00,,,0.01,,2013-01-30 23:52:00,
2013-01-30 19:02:00,69.0,63.0,29.49,ESE,107,5.0,12.0,80,0.00,,,0.01,,2013-01-31 00:02:00,
2013-01-30 19:11:00,69.0,63.0,29.49,ESE,107,5.0,12.0,80,0.00,,,0.01,,2013-01-31 00:11:00,
2013-01-30 19:22:00,68.0,63.0,29.48,ESE,115,5.0,17.0,84,0.00,,,0.01,,2013-01-31 00:22:00,
2013-01-30 19:32:00,68.0,64.0,29.47,SW,235,11.0,18.0,86,0.00,,,0.01,,2013-01-31 00:32:00,
2013-01-30 19:42:00,68.0,64.0,29.47,SW,235,11.0,18.0,86,0.00,,,0.01,,2013-01-31 00:42:00,
2013-01-30 19:53:00,68.0,64.0,29.48,South,183,8.0,21.0,86,0.00,,,0.01,,2013-01-31 00:53:00,
2013-01-30 20:02:00,68.0,64.0,29.47,SSW,198,7.0,15.0,87,0.00,,,0.01,,2013-01-31 01:02:00,
2013-01-30 20:12:00,68.0,64.0,29.47,SSW,198,7.0,15.0,87,0.00,,,0.01,,2013-01-31 01:12:00,
2013-01-30 20:22:00,68.0,64.0,29.45,SE,124,7.0,15.0,88,0.00,,,0.01,,2013-01-31 01:22:00,
2013-01-30 20:32:00,68.0,64.0,29.44,SE,129,5.0,18.0,88,0.00,,,0.01,,2013-01-31 01:32:00,
2013-01-30 20:42:00,68.0,64.0,29.44,SE,129,5.0,18.0,88,0.00,,,0.01,,2013-01-31 01:42:00,
2013-01-30 20:52:00,68.0,65.0,29.44,ESE,118,8.0,18.0,89,0.00,,,0.01,,2013-01-31 01:52:00,
2013-01-30 21:01:00,67.0,66.0,29.44,SSE,149,5.0,20.0,96,0.00,,,0.01,,2013-01-31 02:01:00,
2013-01-30 21:12:00,67.0,66.0,29.44,SSE,149,5.0,20.0,96,0.00,,,0.01,,2013-01-31 02:12:00,
2013-01-30 21:22:00,65.0,65.0,29.48,North,359,1.0,22.0,100,0.26,,,0.01,,2013-01-31 02:22:00,
2013-01-30 21:32:00,64.0,64.0,29.49,North,359,1.0,11.0,100,0.65,,,0.01,,2013-01-31 02:32:00,
2013-01-30 21:42:00,64.0,64.0,29.49,North,359,1.0,11.0,100,0.65,,,0.01,,2013-01-31 02:42:00,
2013-01-30 21:52:00,64.0,64.0,29.49,North,359,1.0,11.0,100,0.65,,,0.01,,2013-01-31 02:52:00,
2013-01-30 22:03:00,62.0,62.0,29.50,North,359,0.0,16.0,100,0.87,,,0.01,,2013-01-31 03:03:00,
2013-01-30 22:11:00,62.0,62.0,29.50,North,359,0.0,16.0,100,0.87,,,0.01,,2013-01-31 03:11:00,
2013-01-30 22:21:00,61.0,61.0,29.50,North,359,0.0,9.0,100,0.69,,,0.01,,2013-01-31 03:21:00,
2013-01-30 22:32:00,59.0,59.0,29.52,North,359,0.0,30.0,100,0.34,,,0.01,,2013-01-31 03:32:00,
2013-01-30 22:42:00,59.0,59.0,29.52,North,359,0.0,30.0,100,0.34,,,0.01,,2013-01-31 03:42:00,
2013-01-30 22:52:00,58.0,58.0,29.52,SSW,211,9.0,22.0,99,0.19,,,0.01,,2013-01-31 03:52:00,
2013-01-30 23:02:00,57.0,56.0,29.52,North,359,0.0,27.0,98,0.12,,,0.01,,2013-01-31 04:02:00,
2013-01-30 23:11:00,57.0,56.0,29.52,North,359,0.0,27.0,98,0.12,,,0.01,,2013-01-31 04:11:00,
2013-01-30 23:22:00,57.0,56.0,29.51,North,359,0.0,5.0,97,0.04,,,0.01,,2013-01-31 04:22:00,
2013-01-30 23:32:00,56.0,55.0,29.53,North,359,0.0,10.0,98,0.01,,,0.01,,2013-01-31 04:32:00,
2013-01-30 23:41:00,56.0,55.0,29.53,North,359,0.0,10.0,98,0.01,,,0.01,,2013-01-31 04:41:00,
2013-01-30 23:52:00,54.0,54.0,29.54,SSW,195,3.0,15.0,99,0.03,,,0.01,,2013-01-31 04:52:00,